Weather History for Springfield, OH

Change the Weather History Date:

Saturday, April 19, 2014

  Actual Average (KDAY) Record (KDAY)
Temperature  
Mean Temperature 53 °F 53 °F  
Max Temperature 65 °F 63 °F 84 °F (1985)
Min Temperature 41 °F 43 °F 22 °F (1953)
Degree Days  
Heating Degree Days 12 12  
Month to date heating degree days 295  
Since 1 July heating degree days 5334  
Cooling Degree Days 0 0  
Month to date cooling degree days 0  
Year to date cooling degree days 0  
Growing Degree Days 3 (Base 50)    
Moisture  
Dew Point 39 °F    
Average Humidity 61    
Maximum Humidity 93    
Minimum Humidity 34    
Precipitation  
Precipitation 0.00 in 0.14 in 1.86 in (2011)
Month to date precipitation 2.53  
Year to date precipitation 10.82  
Snow  
Snow 0.00 in 0.00 in 0.30 in (1969)
Month to date snowfall 0.6  
Since 1 July snowfall 23.3  
Snow Depth -    
Sea Level Pressure  
Sea Level Pressure 30.30 in    
Wind  
Wind Speed 10 mph (NE)    
Max Wind Speed 16 mph    
Max Gust Speed 20 mph    
Visibility 6 miles    
Events      
T = Trace of Precipitation, MM = Missing Value Source: NWS Daily Summary

Daily Weather History Graph

Daily Weather History Graph

Search for Another Location

Airport:

Trip Planner

Search our weather history database for the weather conditions in past years. The results will help you decide how hot, cold, wet, or windy it might be!

Date:

Astronomy

Apr. 19, 2014 Rise Set
Actual Time 6:51 AM EDT 8:17 PM EDT
Civil Twilight 6:23 AM EDT 8:46 PM EDT
Nautical Twilight 5:49 AM EDT 9:20 PM EDT
Astronomical Twilight 5:13 AM EDT 9:56 PM EDT
Moon 12:00 AM EDT (4/19) 10:09 AM EDT (4/19)
Length of Visible Light 14h 22m
Length of Day
13h 25m
Waning Gibbous, 79% of the Moon is Illuminated
Apr 19
Waning Gibbous
Apr 22
Last Quarter
Apr 29
New
May 6
First Quarter
May 14
Full

Hourly Weather History & Observations

Time (EDT) Temp. Windchill Dew Point Humidity Pressure Visibility Wind Dir Wind Speed Gust Speed Precip Events Conditions
12:56 AM 50.0 °F - 39.9 °F 68% 30.27 in 8.0 mi North 6.9 mph - N/A   Clear
1:56 AM 48.9 °F - 38.8 °F 68% 30.26 in 7.0 mi North 8.1 mph - N/A   Clear
2:56 AM 48.9 °F - 38.8 °F 68% 30.26 in 7.0 mi North 9.2 mph - N/A   Clear
3:56 AM 46.9 °F - 38.8 °F 73% 30.26 in 7.0 mi NNE 5.8 mph - N/A   Clear
4:56 AM 45.9 °F 41.2 °F 41.0 °F 83% 30.27 in 7.0 mi NNE 9.2 mph - N/A   Clear
5:56 AM 45.0 °F 39.3 °F 41.9 °F 89% 30.28 in 6.0 mi NE 11.5 mph - N/A   Clear
6:56 AM 41.9 °F 36.3 °F 39.9 °F 93% 30.32 in 5.0 mi NE 9.2 mph - N/A   Clear
7:56 AM 45.0 °F 39.3 °F 41.0 °F 86% 30.35 in 4.0 mi NE 11.5 mph - N/A   Clear
8:56 AM 47.8 °F - 41.9 °F 80% 30.35 in 4.0 mi NE 13.8 mph - N/A   Haze
9:56 AM 50.9 °F - 41.9 °F 71% 30.36 in 5.0 mi ENE 16.1 mph - N/A   Haze
10:56 AM 54.9 °F - 43.0 °F 64% 30.36 in 5.0 mi ENE 12.7 mph - N/A   Haze
11:56 AM 59.0 °F - 43.9 °F 57% 30.36 in 5.0 mi ENE 12.7 mph - N/A   Haze
12:56 PM 61.9 °F - 43.0 °F 50% 30.35 in 6.0 mi NNE 12.7 mph 17.3 mph N/A   Haze
1:56 PM 63.9 °F - 38.8 °F 40% 30.33 in 6.0 mi NE 16.1 mph - N/A   Haze
2:56 PM 64.9 °F - 38.8 °F 38% 30.31 in 6.0 mi NE 12.7 mph - N/A   Haze
3:56 PM 65.8 °F - 36.9 °F 34% 30.30 in 7.0 mi NE 15.0 mph 19.6 mph N/A   Clear
4:56 PM 64.9 °F - 36.9 °F 35% 30.29 in 7.0 mi NE 13.8 mph - N/A   Clear
5:56 PM 63.9 °F - 36.0 °F 36% 30.28 in 7.0 mi ENE 15.0 mph - N/A   Clear
6:56 PM 61.9 °F - 36.9 °F 39% 30.28 in 7.0 mi NE 12.7 mph - N/A   Clear
7:56 PM 57.9 °F - 36.9 °F 45% 30.28 in 7.0 mi NE 8.1 mph - N/A   Clear
8:56 PM 52.9 °F - 34.9 °F 50% 30.29 in 8.0 mi NNE 8.1 mph - N/A   Clear
9:56 PM 47.8 °F - 34.0 °F 59% 30.30 in 8.0 mi NNE 10.4 mph - N/A   Clear
10:56 PM 45.9 °F 41.7 °F 34.9 °F 66% 30.29 in 8.0 mi NE 8.1 mph - N/A   Clear
11:56 PM 43.0 °F 38.8 °F 34.0 °F 71% 30.29 in 8.0 mi NNE 6.9 mph - N/A   Clear